Cecil Field, FL

5:08 PM EDT on April 23, 2017 (GMT -0400)
Cecil

Weather History for KVQQ - May, 2012

Change the Weather History Date:

Thursday, May 24, 2012

  Actual Average (KNIP) Record (KNIP)
Temperature  
Mean Temperature 76 °F -  
Max Temperature 89 °F 85 °F 96 °F (1998)
Min Temperature 62 °F 68 °F 59 °F (2001)
Cooling Degree Days 10    
Growing Degree Days 26 (Base 50)    
Moisture  
Dew Point 69 °F    
Average Humidity 85    
Maximum Humidity 100    
Minimum Humidity 49    
Precipitation  
Precipitation 0.00 in - - ()
Sea Level Pressure  
Sea Level Pressure 29.93 in    
Wind  
Wind Speed 2 mph (East)    
Max Wind Speed 16 mph    
Max Gust Speed 24 mph    
Visibility 8 miles    
Events Fog    
Averages and records for this station are not official NWS values.
T = Trace of Precipitation, MM = Missing Value Source: NWS Daily Summary

Daily Weather History Graph

Daily Weather History Graph

Search for Another Location

Airport or City:

Trip Planner

Search our weather history database for the weather conditions in past years. The results will help you decide how hot, cold, wet, or windy it might be!

Date:

Astronomy

May. 24, 2012 Rise Set
Actual Time 6:28 AM EDT 8:20 PM EDT
Civil Twilight 6:02 AM EDT 8:47 PM EDT
Nautical Twilight 5:29 AM EDT 9:19 PM EDT
Astronomical Twilight 4:55 AM EDT 9:53 PM EDT
Moon 9:25 AM EDT (5/24) 11:23 PM EDT (5/24)
Length of Visible Light 14h 45m
Length of Day
13h 51m
Waxing Crescent, 12% of the Moon is Illuminated
May 24
Waxing Crescent
May 28
First Quarter
Jun 4
Full
Jun 11
Last Quarter
Jun 19
New

Hourly Weather History & Observations

Time (EDT) Temp. Heat Index Dew Point Humidity Pressure Visibility Wind Dir Wind Speed Gust Speed Precip Events Conditions
12:15 AM 73.4 °F - 68.0 °F 83% 29.92 in 10.0 mi Calm Calm - N/A   Mostly Cloudy
12:35 AM 73.4 °F - 68.0 °F 83% 29.93 in 10.0 mi Calm Calm - N/A   Scattered Clouds
12:55 AM 73.4 °F - 69.8 °F 88% 29.92 in 10.0 mi Calm Calm - N/A   Mostly Cloudy
1:15 AM 73.4 °F - 69.8 °F 88% 29.92 in 5.0 mi Calm Calm - N/A   Scattered Clouds
1:35 AM 73.4 °F - 69.8 °F 88% 29.92 in 10.0 mi Calm Calm - N/A   Scattered Clouds
1:55 AM 73.4 °F - 69.8 °F 88% 29.91 in 9.0 mi Calm Calm - N/A   Partly Cloudy
2:15 AM 71.6 °F - 69.8 °F 94% 29.91 in 10.0 mi Calm Calm - N/A   Clear
2:35 AM 71.6 °F - 69.8 °F 94% 29.90 in 9.0 mi Calm Calm - N/A   Clear
2:55 AM 68.0 °F - 68.0 °F 100% 29.90 in 6.0 mi Calm Calm - N/A   Clear
3:15 AM 66.2 °F - 66.2 °F 100% 29.90 in 3.0 mi Calm Calm - N/A   Clear
3:35 AM 68.0 °F - 68.0 °F 100% 29.89 in 3.0 mi Calm Calm - N/A   Clear
3:55 AM 66.2 °F - 66.2 °F 100% 29.90 in 1.5 mi Calm Calm - N/A   Clear
4:15 AM 64.4 °F - 64.4 °F 100% 29.90 in 3.0 mi Calm Calm - N/A   Clear
4:55 AM 64.4 °F - 64.4 °F 100% 29.90 in 1.5 mi Calm Calm - N/A   Clear
5:15 AM 64.4 °F - 64.4 °F 100% 29.91 in 4.0 mi Calm Calm - N/A   Clear
5:55 AM 64.4 °F - 64.4 °F 100% 29.91 in 3.0 mi Calm Calm - N/A   Clear
6:15 AM 64.4 °F - 64.4 °F 100% 29.92 in 0.2 mi Calm Calm - N/A Fog Fog
6:50 AM 62.6 °F - 62.6 °F 100% 29.93 in 2.5 mi Calm Calm - N/A   Clear
7:50 AM 69.8 °F - 69.8 °F 100% 29.93 in 6.0 mi Calm Calm - N/A   Clear
9:50 AM 78.8 °F - 71.6 °F 78% 29.95 in 10.0 mi Calm Calm - N/A   Clear
10:50 AM 82.4 °F 87.2 °F 71.6 °F 70% 29.95 in 10.0 mi Calm Calm - N/A   Clear
11:50 AM 86.0 °F 91.8 °F 71.6 °F 62% 29.95 in 10.0 mi Variable 5.8 mph - N/A   Clear
12:50 PM 87.8 °F 91.4 °F 68.0 °F 52% 29.95 in 10.0 mi East 5.8 mph - N/A   Scattered Clouds
1:50 PM 89.6 °F 93.4 °F 68.0 °F 49% 29.94 in 10.0 mi East 9.2 mph - N/A   Scattered Clouds
2:50 PM 87.8 °F 91.4 °F 68.0 °F 52% 29.94 in 10.0 mi East 15.0 mph - N/A   Scattered Clouds
3:50 PM 87.8 °F 90.4 °F 66.2 °F 49% 29.92 in 10.0 mi East 11.5 mph - N/A   Partly Cloudy
4:50 PM 86.0 °F 89.4 °F 68.0 °F 55% 29.92 in 10.0 mi East 13.8 mph - N/A   Scattered Clouds
5:50 PM 84.2 °F 88.4 °F 69.8 °F 62% 29.93 in 10.0 mi East 16.1 mph 23.0 mph N/A   Partly Cloudy
6:50 PM 82.4 °F 86.3 °F 69.8 °F 66% 29.92 in 10.0 mi ENE 12.7 mph 24.2 mph N/A   Scattered Clouds
7:50 PM 80.6 °F 84.6 °F 71.6 °F 74% 29.93 in 10.0 mi East 11.5 mph - N/A   Scattered Clouds
8:55 PM 77.0 °F - 71.6 °F 83% 29.93 in 10.0 mi Calm Calm - N/A   Clear
9:15 PM 77.0 °F - 71.6 °F 83% 29.94 in 10.0 mi Calm Calm - N/A   Partly Cloudy
9:35 PM 75.2 °F - 71.6 °F 89% 29.94 in 10.0 mi Calm Calm - N/A   Clear
9:55 PM 75.2 °F - 71.6 °F 89% 29.95 in 10.0 mi Calm Calm - N/A   Clear
10:15 PM 73.4 °F - 71.6 °F 94% 29.96 in 10.0 mi Calm Calm - N/A   Clear
10:35 PM 71.6 °F - 71.6 °F 100% 29.96 in 10.0 mi Calm Calm - N/A   Clear
10:55 PM 71.6 °F - 71.6 °F 100% 29.96 in 10.0 mi Calm Calm - N/A   Clear
11:15 PM 69.8 °F - 69.8 °F 100% 29.97 in 10.0 mi Calm Calm - N/A   Clear
11:35 PM 68.0 °F - 68.0 °F 100% 29.96 in 10.0 mi Calm Calm - N/A   Clear